Regional Weather Roundup
Issued by NWS Sioux Falls, SD

Home | Current Version | Previous Version | Text Only | Print | Product List | Glossary On
Versions: 1 2 3 4 5 6 7 8 9 10 11 12 13 14 15 16 17 18 19 20 21 22 23 24 25 26 27 28 29 30 31 32 33 34 35 36 37 38 39 40 41 42 43 44 45 46 47 48 49 50
000
ASUS43 KFSD 271102
RWRFSD

WEATHER ROUNDUP FOR SE SOUTH DAKOTA/SW MINNESOTA/NW IOWA
NATIONAL WEATHER SERVICE SIOUX FALLS SD
600 AM CDT FRI MAY 27 2016

NOTE: "FAIR" INDICATES FEW OR NO CLOUDS BELOW 12,000 FEET WITH NO
SIGNIFICANT WEATHER AND OR OBSTRUCTIONS TO VISIBILITY.


SDZ038>040-050-052>070-271200-
SOUTHEAST SOUTH DAKOTA

CITY           SKY/WX    TMP DP  RH WIND       PRES   REMARKS
BROOKINGS      CLOUDY    57  55  93 E5        29.74F
CHAMBERLAIN    NOT AVBL
HURON          CLOUDY    57  56  96 E3        29.72F
MADISON        FAIR      55  55 100 NE5       29.74F
MITCHELL       CLOUDY    59  57  93 SE5       29.71F
SIOUX FALLS    CLOUDY    58  54  86 E5        29.74F
WINNER         FAIR      57  52  83 NE3       29.74S
YANKTON        CLOUDY    61  55  82 E8        29.71R
$$

MNZ071-072-080-081-089-090-097-098-271200-
SOUTHWEST MINNESOTA

CITY           SKY/WX    TMP DP  RH WIND       PRES   REMARKS
FAIRMONT       CLOUDY    61  52  72 S6        29.77F
JACKSON        CLOUDY    61  55  82 CALM      29.78F
LUVERNE        CLOUDY    57  52  82 CALM      29.75F
MARSHALL       CLOUDY    62  56  80 NW5       29.74F
MONTEVIDEO     CLOUDY    59  54  82 CALM      29.75F
PIPESTONE      CLOUDY    59  55  88 S7        29.75F
REDWOOD FALLS  CLOUDY    60  56  86 S6        29.74F
TRACY          MOCLDY    61  57  86 S10       29.75F
WINDOM         CLOUDY    59  55  88 CALM      29.76F
WORTHINGTON    CLOUDY    57  55  93 W5        29.75F
$$

IAZ001>003-012>014-020>022-031-032-NEZ013-014-SDZ071-271200-
NORTHWEST IOWA

CITY           SKY/WX    TMP DP  RH WIND       PRES   REMARKS
ESTHERVILLE    MOCLDY    59  56  89 E8        29.76F
SIOUX CITY     CLOUDY    63  57  81 E6        29.72F
SPENCER        PTCLDY    57  53  86 E6        29.76F
STORM LAKE     CLOUDY    59  55  88 SE6       29.76F
$$

ABBREVIATIONS USED IN REMARKS
   TC - TEMPERATURE IN CELSIUS
  WCI - WIND CHILL INDEX
   HX - HEAT INDEX
  VSB - VISIBILITY





USA.gov is the U.S. government's official web portal to all federal, state and local government web resources and services.